Weather History for Greensboro, NC

Change the Weather History Date:

Thursday, September 12, 2013

  Actual Average Record
Temperature  
Mean Temperature 79 °F 72 °F  
Max Temperature 88 °F 81 °F 95 °F (1983)
Min Temperature 69 °F 62 °F 43 °F (1917)
Degree Days  
Heating Degree Days 0 0  
Month to date heating degree days 0 0  
Since 1 July heating degree days 2 1  
Cooling Degree Days 14 7  
Month to date cooling degree days 134 102  
Year to date cooling degree days 1293 1364  
Growing Degree Days 28 (Base 50)    
Moisture  
Dew Point 68 °F    
Average Humidity 76    
Maximum Humidity 97    
Minimum Humidity 55    
Precipitation  
Precipitation 0.43 in 0.15 in 1.64 in (1934)
Month to date precipitation 1.42 1.82  
Year to date precipitation 39.81 30.61  
Sea Level Pressure  
Sea Level Pressure 29.93 in    
Wind  
Wind Speed 5 mph (SW)    
Max Wind Speed 26 mph    
Max Gust Speed 32 mph    
Visibility 7 miles    
Events Rain , Thunderstorm    
T = Trace of Precipitation, MM = Missing Value Source: NWS Daily Summary

Daily Weather History Graph

Daily Weather History Graph

Search for Another Location

Airport:

Trip Planner

Search our weather history database for the weather conditions in past years. The results will help you decide how hot, cold, wet, or windy it might be!

Date:

Astronomy

Sep. 12, 2013 Rise Set
Actual Time 7:00 AM EDT 7:31 PM EDT
Civil Twilight 6:34 AM EDT 7:56 PM EDT
Nautical Twilight 6:03 AM EDT 8:27 PM EDT
Astronomical Twilight 5:32 AM EDT 8:58 PM EDT
Moon 2:14 PM EDT (9/12) No Moon Set
Length of Visible Light 13h 22m
Length of Day
12h 31m
Waxing Crescent, 50% of the Moon is Illuminated
Sep 12
Waxing Crescent
Sep 12
First Quarter
Sep 19
Full
Sep 26
Last Quarter
Oct 4
New

Hourly Weather History & Observations

Time (EDT) Temp. Heat Index Dew Point Humidity Pressure Visibility Wind Dir Wind Speed Gust Speed Precip Events Conditions
12:54 AM 72.0 °F - 68.0 °F 87% 30.05 in 8.0 mi SSW 4.6 mph - N/A   Clear
1:54 AM 72.0 °F - 68.0 °F 87% 30.03 in 7.0 mi SW 5.8 mph - N/A   Clear
2:54 AM 71.1 °F - 66.9 °F 87% 30.02 in 7.0 mi SSW 5.8 mph - N/A   Scattered Clouds
3:54 AM 72.0 °F - 66.9 °F 84% 30.02 in 8.0 mi SSW 5.8 mph - N/A   Overcast
4:54 AM 71.1 °F - 66.9 °F 87% 30.01 in 7.0 mi SSW 8.1 mph - N/A   Scattered Clouds
5:54 AM 70.0 °F - 66.0 °F 87% 30.01 in 8.0 mi SW 6.9 mph - N/A   Scattered Clouds
6:54 AM 69.1 °F - 64.9 °F 87% 30.01 in 7.0 mi SW 5.8 mph - N/A   Partly Cloudy
7:54 AM 71.1 °F - 66.9 °F 87% 30.01 in 5.0 mi West 5.8 mph - N/A   Scattered Clouds
8:54 AM 75.0 °F - 68.0 °F 79% 30.01 in 6.0 mi West 4.6 mph - N/A   Haze
9:54 AM 78.1 °F - 69.1 °F 74% 29.99 in 9.0 mi WNW 6.9 mph - N/A   Scattered Clouds
10:54 AM 82.9 °F 85.8 °F 68.0 °F 60% 29.98 in 10.0 mi NW 6.9 mph - N/A   Mostly Cloudy
11:54 AM 84.9 °F 88.8 °F 69.1 °F 59% 29.96 in 10.0 mi WNW 6.9 mph - N/A   Overcast
12:54 PM 86.0 °F 89.4 °F 68.0 °F 55% 29.95 in 9.0 mi Variable 3.5 mph - N/A   Mostly Cloudy
1:54 PM 86.0 °F 89.4 °F 68.0 °F 55% 29.93 in 8.0 mi Calm Calm - N/A   Mostly Cloudy
2:21 PM 87.8 °F 91.4 °F 68.0 °F 52% 29.95 in 8.0 mi West 9.2 mph - N/A Thunderstorm Thunderstorm
2:54 PM 82.0 °F 84.5 °F 66.9 °F 60% 29.90 in 10.0 mi North 3.5 mph - N/A Thunderstorm Thunderstorm
3:10 PM 78.8 °F - 66.2 °F 65% 29.92 in 7.0 mi Calm Calm - 0.01 in Rain Rain
3:54 PM 84.9 °F 89.4 °F 70.0 °F 61% 29.86 in 9.0 mi SW 5.8 mph - 0.02 in   Overcast
4:54 PM 84.9 °F 89.4 °F 70.0 °F 61% 29.84 in 8.0 mi SW 6.9 mph - N/A   Mostly Cloudy
5:25 PM 82.4 °F 86.3 °F 69.8 °F 66% 29.87 in 8.0 mi SW 5.8 mph - N/A Thunderstorm Thunderstorm
5:54 PM 73.0 °F - 66.0 °F 79% 29.87 in 4.0 mi WNW 21.9 mph 31.1 mph 0.01 in Rain , Thunderstorm Thunderstorms and Rain
6:04 PM 71.6 °F - 62.6 °F 73% 29.90 in 1.8 mi West 21.9 mph 32.2 mph 0.04 in Rain , Thunderstorm Heavy Thunderstorms and Rain
6:07 PM 73.4 °F - 62.6 °F 69% 29.91 in 0.8 mi SW 13.8 mph 32.2 mph 0.07 in Rain , Thunderstorm Heavy Thunderstorms and Rain
6:15 PM 75.2 °F - 66.2 °F 73% 29.88 in 0.5 mi South 8.1 mph 20.7 mph 0.40 in Rain , Thunderstorm Heavy Thunderstorms and Rain
6:22 PM 77.0 °F - 66.2 °F 69% 29.87 in 2.5 mi ESE 6.9 mph - 0.40 in Rain , Thunderstorm Light Thunderstorms and Rain
6:29 PM 75.2 °F - 66.2 °F 73% 29.87 in 10.0 mi ESE 4.6 mph - 0.40 in Thunderstorm Thunderstorm
6:51 PM 77.0 °F - 69.8 °F 78% 29.88 in 10.0 mi Calm Calm - 0.40 in   Mostly Cloudy
6:54 PM 77.0 °F - 69.1 °F 76% 29.85 in 10.0 mi Calm Calm - 0.40 in   Mostly Cloudy
7:54 PM 73.9 °F - 69.1 °F 85% 29.85 in 10.0 mi North 3.5 mph - N/A   Mostly Cloudy
8:54 PM 73.0 °F - 70.0 °F 90% 29.85 in 9.0 mi South 3.5 mph - N/A   Mostly Cloudy
9:54 PM 72.0 °F - 69.1 °F 91% 29.84 in 7.0 mi SSW 4.6 mph - N/A   Scattered Clouds
10:54 PM 71.1 °F - 68.0 °F 90% 29.83 in 9.0 mi SSW 4.6 mph - N/A   Clear
11:54 PM 70.0 °F - 68.0 °F 93% 29.82 in 8.0 mi SW 4.6 mph - N/A   Clear